Location: Maccacari
(45.1333°N, 11.1333°E)
Time: 03:28:48
(UTC+00:00)

Altair - Pass Details

Date: 29 January 2021
Orbit: 1501 x 1682 km, 47.2° (Epoch: 01 March)

Event Time Altitude Azimuth Distance (km) Brightness Sun altitude
Rises 00:52:55 0° 187° (S) 4,779 - -57.6°
Reaches altitude 10° 00:56:55 10° 173° (S) 3,828 - -57.1°
Maximum altitude 01:03:47 22° 127° (SE) 3,035 - -56.3°
Exits shadow 01:08:09 16° 95° (E) 3,418 9.5 -55.8°
Drops below altitude 10° 01:10:48 10° 82° (E) 3,925 9.9 -55.4°
Sets 01:14:55 0° 69° (ENE) 4,931 10.7 -54.9°
